Wetterdaten: Samstag, 12.12.2015
Datum Zeit Temp. A. Feuchte A. Luftdruck Regen Wind Richtung Richtung Sonnenschein ET UV Solar Taupunkt Windchill Windben Empfang
12.12.2015 00:00 3,7 C 81 % 1027,7 hPa 0,0 l/m 9,7 km/h (2 Bft) SW 225 0 min 0,025 mm 0,0 UV-I 0 W/m 0,7 C 0,9 C 14,5 km/h (3 Bft) 100,00 %
12.12.2015 00:05 3,8 C 81 % 1027,7 hPa 0,0 l/m 11,3 km/h (2 Bft) S-SW 202 0 min 0,000 mm 0,0 UV-I 0 W/m 0,8 C -0,2 C 20,9 km/h (4 Bft) 99,12 %
12.12.2015 00:10 4,2 C 80 % 1027,6 hPa 0,0 l/m 12,9 km/h (3 Bft) S-SW 202 0 min 0,000 mm 0,0 UV-I 0 W/m 1,1 C -0,7 C 19,3 km/h (3 Bft) 100,00 %
12.12.2015 00:15 4,6 C 79 % 1027,5 hPa 0,0 l/m 12,9 km/h (3 Bft) SW 225 0 min 0,000 mm 0,0 UV-I 0 W/m 1,3 C -0,2 C 19,3 km/h (3 Bft) 100,00 %
12.12.2015 00:20 4,7 C 79 % 1027,6 hPa 0,0 l/m 11,3 km/h (2 Bft) SW 225 0 min 0,000 mm 0,0 UV-I 0 W/m 1,4 C 0,9 C 20,9 km/h (4 Bft) 100,00 %
12.12.2015 00:25 4,6 C 79 % 1027,5 hPa 0,0 l/m 12,9 km/h (3 Bft) SW 225 0 min 0,000 mm 0,0 UV-I 0 W/m 1,3 C -0,2 C 17,7 km/h (3 Bft) 100,00 %
12.12.2015 00:30 4,6 C 79 % 1027,5 hPa 0,0 l/m 11,3 km/h (2 Bft) SW 225 0 min 0,000 mm 0,0 UV-I 0 W/m 1,3 C 0,7 C 16,1 km/h (3 Bft) 100,00 %
12.12.2015 00:35 4,5 C 79 % 1027,5 hPa 0,0 l/m 11,3 km/h (2 Bft) SW 225 0 min 0,000 mm 0,0 UV-I 0 W/m 1,2 C 0,6 C 16,1 km/h (3 Bft) 100,00 %
12.12.2015 00:40 4,5 C 80 % 1027,5 hPa 0,0 l/m 9,7 km/h (2 Bft) SW 225 0 min 0,000 mm 0,0 UV-I 0 W/m 1,4 C 1,7 C 16,1 km/h (3 Bft) 100,00 %
12.12.2015 00:45 4,6 C 79 % 1027,5 hPa 0,0 l/m 9,7 km/h (2 Bft) SW 225 0 min 0,000 mm 0,0 UV-I 0 W/m 1,3 C 1,8 C 14,5 km/h (3 Bft) 98,25 %
12.12.2015 00:50 4,4 C 80 % 1027,4 hPa 0,0 l/m 8,0 km/h (2 Bft) SW 225 0 min 0,000 mm 0,0 UV-I 0 W/m 1,3 C 3,0 C 12,9 km/h (3 Bft) 97,37 %
12.12.2015 00:55 4,6 C 80 % 1027,3 hPa 0,0 l/m 9,7 km/h (2 Bft) SW 225 0 min 0,000 mm 0,0 UV-I 0 W/m 1,5 C 1,8 C 14,5 km/h (3 Bft) 99,12 %
12.12.2015 01:00 4,6 C 80 % 1027,2 hPa 0,0 l/m 12,9 km/h (3 Bft) SW 225 0 min 0,025 mm 0,0 UV-I 0 W/m 1,5 C -0,2 C 19,3 km/h (3 Bft) 97,37 %
12.12.2015 01:05 4,8 C 79 % 1027,1 hPa 0,0 l/m 16,1 km/h (3 Bft) SW 225 0 min 0,000 mm 0,0 UV-I 0 W/m 1,5 C -1,7 C 29,0 km/h (5 Bft) 96,49 %
12.12.2015 01:10 5,2 C 79 % 1027,0 hPa 0,0 l/m 19,3 km/h (3 Bft) SW 225 0 min 0,000 mm 0,0 UV-I 0 W/m 1,9 C -2,6 C 29,0 km/h (5 Bft) 97,37 %
12.12.2015 01:15 5,2 C 79 % 1027,0 hPa 0,0 l/m 16,1 km/h (3 Bft) SW 225 0 min 0,000 mm 0,0 UV-I 0 W/m 1,9 C -1,2 C 29,0 km/h (5 Bft) 97,37 %
12.12.2015 01:20 5,3 C 79 % 1027,0 hPa 0,0 l/m 17,7 km/h (3 Bft) SW 225 0 min 0,000 mm 0,0 UV-I 0 W/m 2,0 C -1,8 C 24,1 km/h (4 Bft) 97,37 %
12.12.2015 01:25 5,3 C 79 % 1026,9 hPa 0,0 l/m 16,1 km/h (3 Bft) SW 225 0 min 0,000 mm 0,0 UV-I 0 W/m 2,0 C -1,1 C 25,7 km/h (4 Bft) 98,25 %
12.12.2015 01:30 5,4 C 79 % 1027,0 hPa 0,0 l/m 22,5 km/h (4 Bft) SW 225 0 min 0,000 mm 0,0 UV-I 0 W/m 2,1 C -3,6 C 37,0 km/h (5 Bft) 100,00 %
12.12.2015 01:35 5,5 C 79 % 1026,9 hPa 0,0 l/m 19,3 km/h (3 Bft) SW 225 0 min 0,000 mm 0,0 UV-I 0 W/m 2,2 C -2,2 C 30,6 km/h (5 Bft) 100,00 %
12.12.2015 01:40 5,6 C 79 % 1026,9 hPa 0,0 l/m 19,3 km/h (3 Bft) SW 225 0 min 0,000 mm 0,0 UV-I 0 W/m 2,3 C -2,1 C 32,2 km/h (5 Bft) 100,00 %
12.12.2015 01:45 5,6 C 78 % 1026,8 hPa 0,0 l/m 17,7 km/h (3 Bft) SW 225 0 min 0,000 mm 0,0 UV-I 0 W/m 2,1 C -1,5 C 25,7 km/h (4 Bft) 100,00 %
12.12.2015 01:50 5,6 C 78 % 1026,8 hPa 0,0 l/m 19,3 km/h (3 Bft) SW 225 0 min 0,000 mm 0,0 UV-I 0 W/m 2,1 C -2,1 C 27,4 km/h (4 Bft) 100,00 %
12.12.2015 01:55 5,6 C 78 % 1026,8 hPa 0,0 l/m 17,7 km/h (3 Bft) SW 225 0 min 0,000 mm 0,0 UV-I 0 W/m 2,1 C -1,5 C 27,4 km/h (4 Bft) 99,12 %
12.12.2015 02:00 5,5 C 78 % 1026,9 hPa 0,0 l/m 17,7 km/h (3 Bft) SW 225 0 min 0,025 mm 0,0 UV-I 0 W/m 2,0 C -1,6 C 29,0 km/h (5 Bft) 100,00 %
12.12.2015 02:05 5,5 C 78 % 1026,9 hPa 0,0 l/m 16,1 km/h (3 Bft) SW 225 0 min 0,000 mm 0,0 UV-I 0 W/m 2,0 C -0,9 C 24,1 km/h (4 Bft) 100,00 %
12.12.2015 02:10 5,4 C 79 % 1027,0 hPa 0,0 l/m 14,5 km/h (3 Bft) SW 225 0 min 0,000 mm 0,0 UV-I 0 W/m 2,1 C -0,2 C 20,9 km/h (4 Bft) 100,00 %
12.12.2015 02:15 5,3 C 79 % 1027,0 hPa 0,0 l/m 12,9 km/h (3 Bft) SW 225 0 min 0,000 mm 0,0 UV-I 0 W/m 2,0 C 0,6 C 20,9 km/h (4 Bft) 100,00 %
12.12.2015 02:20 5,3 C 79 % 1027,0 hPa 0,0 l/m 11,3 km/h (2 Bft) SW 225 0 min 0,000 mm 0,0 UV-I 0 W/m 2,0 C 1,5 C 17,7 km/h (3 Bft) 100,00 %
12.12.2015 02:25 5,3 C 79 % 1027,0 hPa 0,0 l/m 9,7 km/h (2 Bft) SW 225 0 min 0,000 mm 0,0 UV-I 0 W/m 2,0 C 2,6 C 17,7 km/h (3 Bft) 100,00 %
12.12.2015 02:30 5,1 C 80 % 1027,1 hPa 0,0 l/m 11,3 km/h (2 Bft) SW 225 0 min 0,000 mm 0,0 UV-I 0 W/m 1,9 C 1,3 C 16,1 km/h (3 Bft) 100,00 %
12.12.2015 02:35 5,0 C 81 % 1027,1 hPa 0,0 l/m 9,7 km/h (2 Bft) SW 225 0 min 0,000 mm 0,0 UV-I 0 W/m 2,0 C 2,3 C 16,1 km/h (3 Bft) 100,00 %
12.12.2015 02:40 5,1 C 80 % 1027,0 hPa 0,0 l/m 8,0 km/h (2 Bft) S-SW 202 0 min 0,000 mm 0,0 UV-I 0 W/m 1,9 C 3,7 C 14,5 km/h (3 Bft) 100,00 %
12.12.2015 02:45 5,2 C 79 % 1026,9 hPa 0,0 l/m 9,7 km/h (2 Bft) S-SW 202 0 min 0,000 mm 0,0 UV-I 0 W/m 1,9 C 2,5 C 17,7 km/h (3 Bft) 100,00 %
12.12.2015 02:50 5,3 C 78 % 1026,8 hPa 0,0 l/m 11,3 km/h (2 Bft) SW 225 0 min 0,000 mm 0,0 UV-I 0 W/m 1,8 C 1,5 C 17,7 km/h (3 Bft) 100,00 %
12.12.2015 02:55 5,4 C 78 % 1026,8 hPa 0,0 l/m 11,3 km/h (2 Bft) SW 225 0 min 0,000 mm 0,0 UV-I 0 W/m 1,9 C 1,7 C 19,3 km/h (3 Bft) 99,12 %
12.12.2015 03:00 5,4 C 78 % 1026,8 hPa 0,0 l/m 14,5 km/h (3 Bft) SW 225 0 min 0,025 mm 0,0 UV-I 0 W/m 1,9 C -0,2 C 27,4 km/h (4 Bft) 97,37 %
12.12.2015 03:05 5,6 C 77 % 1026,6 hPa 0,0 l/m 17,7 km/h (3 Bft) SW 225 0 min 0,000 mm 0,0 UV-I 0 W/m 1,9 C -1,5 C 27,4 km/h (4 Bft) 97,37 %
12.12.2015 03:10 5,8 C 76 % 1026,5 hPa 0,0 l/m 17,7 km/h (3 Bft) SW 225 0 min 0,000 mm 0,0 UV-I 0 W/m 1,9 C -1,2 C 29,0 km/h (5 Bft) 98,25 %
12.12.2015 03:15 5,8 C 75 % 1026,5 hPa 0,0 l/m 16,1 km/h (3 Bft) SW 225 0 min 0,000 mm 0,0 UV-I 0 W/m 1,7 C -0,5 C 22,5 km/h (4 Bft) 97,37 %
12.12.2015 03:20 5,9 C 74 % 1026,5 hPa 0,0 l/m 16,1 km/h (3 Bft) SW 225 0 min 0,000 mm 0,0 UV-I 0 W/m 1,6 C -0,4 C 25,7 km/h (4 Bft) 97,37 %
12.12.2015 03:25 5,9 C 75 % 1026,5 hPa 0,0 l/m 12,9 km/h (3 Bft) SW 225 0 min 0,000 mm 0,0 UV-I 0 W/m 1,8 C 1,3 C 22,5 km/h (4 Bft) 96,49 %
12.12.2015 03:30 5,8 C 75 % 1026,6 hPa 0,0 l/m 11,3 km/h (2 Bft) SW 225 0 min 0,000 mm 0,0 UV-I 0 W/m 1,7 C 2,1 C 17,7 km/h (3 Bft) 98,25 %
12.12.2015 03:35 5,8 C 75 % 1026,5 hPa 0,0 l/m 11,3 km/h (2 Bft) SW 225 0 min 0,000 mm 0,0 UV-I 0 W/m 1,7 C 2,1 C 17,7 km/h (3 Bft) 100,00 %
12.12.2015 03:40 5,8 C 75 % 1026,5 hPa 0,0 l/m 11,3 km/h (2 Bft) SW 225 0 min 0,000 mm 0,0 UV-I 0 W/m 1,7 C 2,1 C 17,7 km/h (3 Bft) 99,12 %
12.12.2015 03:45 5,8 C 76 % 1026,5 hPa 0,0 l/m 9,7 km/h (2 Bft) SW 225 0 min 0,000 mm 0,0 UV-I 0 W/m 1,9 C 3,2 C 17,7 km/h (3 Bft) 100,00 %
12.12.2015 03:50 5,8 C 75 % 1026,5 hPa 0,0 l/m 9,7 km/h (2 Bft) SW 225 0 min 0,000 mm 0,0 UV-I 0 W/m 1,7 C 3,2 C 17,7 km/h (3 Bft) 99,12 %
12.12.2015 03:55 5,9 C 75 % 1026,4 hPa 0,0 l/m 9,7 km/h (2 Bft) S-SW 202 0 min 0,000 mm 0,0 UV-I 0 W/m 1,8 C 3,3 C 19,3 km/h (3 Bft) 100,00 %
12.12.2015 04:00 6,0 C 76 % 1026,4 hPa 0,0 l/m 9,7 km/h (2 Bft) SW 225 0 min 0,025 mm 0,0 UV-I 0 W/m 2,1 C 3,4 C 14,5 km/h (3 Bft) 100,00 %
12.12.2015 04:05 6,0 C 75 % 1026,4 hPa 0,0 l/m 11,3 km/h (2 Bft) SW 225 0 min 0,000 mm 0,0 UV-I 0 W/m 1,9 C 2,3 C 16,1 km/h (3 Bft) 92,11 %
12.12.2015 04:10 6,1 C 75 % 1026,4 hPa 0,0 l/m 11,3 km/h (2 Bft) SW 225 0 min 0,000 mm 0,0 UV-I 0 W/m 2,0 C 2,4 C 19,3 km/h (3 Bft) 100,00 %
12.12.2015 04:15 6,2 C 76 % 1026,5 hPa 0,0 l/m 14,5 km/h (3 Bft) SW 225 0 min 0,000 mm 0,0 UV-I 0 W/m 2,3 C 0,8 C 22,5 km/h (4 Bft) 99,12 %
12.12.2015 04:20 6,3 C 75 % 1026,4 hPa 0,0 l/m 14,5 km/h (3 Bft) SW 225 0 min 0,000 mm 0,0 UV-I 0 W/m 2,2 C 0,9 C 19,3 km/h (3 Bft) 99,12 %
12.12.2015 04:25 6,4 C 74 % 1026,4 hPa 0,0 l/m 14,5 km/h (3 Bft) SW 225 0 min 0,000 mm 0,0 UV-I 0 W/m 2,1 C 1,0 C 20,9 km/h (4 Bft) 100,00 %
12.12.2015 04:30 6,6 C 73 % 1026,4 hPa 0,0 l/m 11,3 km/h (2 Bft) S-SW 202 0 min 0,000 mm 0,0 UV-I 0 W/m 2,1 C 3,0 C 19,3 km/h (3 Bft) 100,00 %
12.12.2015 04:35 6,8 C 72 % 1026,4 hPa 0,0 l/m 14,5 km/h (3 Bft) SW 225 0 min 0,000 mm 0,0 UV-I 0 W/m 2,1 C 1,5 C 22,5 km/h (4 Bft) 100,00 %
12.12.2015 04:40 6,9 C 71 % 1026,3 hPa 0,0 l/m 14,5 km/h (3 Bft) SW 225 0 min 0,000 mm 0,0 UV-I 0 W/m 2,0 C 1,6 C 24,1 km/h (4 Bft) 99,12 %
12.12.2015 04:45 7,0 C 70 % 1026,3 hPa 0,0 l/m 12,9 km/h (3 Bft) SW 225 0 min 0,000 mm 0,0 UV-I 0 W/m 1,9 C 2,6 C 22,5 km/h (4 Bft) 100,00 %
12.12.2015 04:50 7,1 C 70 % 1026,3 hPa 0,0 l/m 14,5 km/h (3 Bft) S-SW 202 0 min 0,000 mm 0,0 UV-I 0 W/m 2,0 C 1,9 C 25,7 km/h (4 Bft) 100,00 %
12.12.2015 04:55 7,1 C 70 % 1026,3 hPa 0,0 l/m 14,5 km/h (3 Bft) S-SW 202 0 min 0,000 mm 0,0 UV-I 0 W/m 2,0 C 1,9 C 22,5 km/h (4 Bft) 100,00 %
12.12.2015 05:00 7,2 C 70 % 1026,2 hPa 0,0 l/m 14,5 km/h (3 Bft) S-SW 202 0 min 0,025 mm 0,0 UV-I 0 W/m 2,1 C 2,0 C 29,0 km/h (5 Bft) 98,25 %
12.12.2015 05:05 7,2 C 70 % 1026,4 hPa 0,0 l/m 12,9 km/h (3 Bft) SW 225 0 min 0,000 mm 0,0 UV-I 0 W/m 2,1 C 2,8 C 27,4 km/h (4 Bft) 98,25 %
12.12.2015 05:10 7,2 C 70 % 1026,3 hPa 0,0 l/m 12,9 km/h (3 Bft) SW 225 0 min 0,000 mm 0,0 UV-I 0 W/m 2,1 C 2,8 C 24,1 km/h (4 Bft) 97,37 %
12.12.2015 05:15 7,2 C 69 % 1026,2 hPa 0,0 l/m 11,3 km/h (2 Bft) S-SW 202 0 min 0,000 mm 0,0 UV-I 0 W/m 1,9 C 3,7 C 19,3 km/h (3 Bft) 98,25 %
12.12.2015 05:20 7,2 C 70 % 1026,2 hPa 0,0 l/m 11,3 km/h (2 Bft) SW 225 0 min 0,000 mm 0,0 UV-I 0 W/m 2,1 C 3,7 C 22,5 km/h (4 Bft) 98,25 %
12.12.2015 05:25 7,2 C 70 % 1026,1 hPa 0,0 l/m 11,3 km/h (2 Bft) S-SW 202 0 min 0,000 mm 0,0 UV-I 0 W/m 2,1 C 3,7 C 24,1 km/h (4 Bft) 97,37 %
12.12.2015 05:30 7,2 C 70 % 1026,1 hPa 0,0 l/m 12,9 km/h (3 Bft) SW 225 0 min 0,000 mm 0,0 UV-I 0 W/m 2,1 C 2,8 C 20,9 km/h (4 Bft) 97,37 %
12.12.2015 05:35 7,1 C 71 % 1026,1 hPa 0,0 l/m 14,5 km/h (3 Bft) SW 225 0 min 0,000 mm 0,0 UV-I 0 W/m 2,2 C 1,9 C 24,1 km/h (4 Bft) 96,49 %
12.12.2015 05:40 7,1 C 71 % 1026,1 hPa 0,0 l/m 14,5 km/h (3 Bft) SW 225 0 min 0,000 mm 0,0 UV-I 0 W/m 2,2 C 1,9 C 25,7 km/h (4 Bft) 100,00 %
12.12.2015 05:45 7,0 C 71 % 1026,2 hPa 0,0 l/m 17,7 km/h (3 Bft) SW 225 0 min 0,000 mm 0,0 UV-I 0 W/m 2,1 C 0,3 C 25,7 km/h (4 Bft) 100,00 %
12.12.2015 05:50 7,0 C 71 % 1026,1 hPa 0,0 l/m 14,5 km/h (3 Bft) SW 225 0 min 0,000 mm 0,0 UV-I 0 W/m 2,1 C 1,7 C 22,5 km/h (4 Bft) 99,12 %
12.12.2015 05:55 6,9 C 71 % 1026,1 hPa 0,0 l/m 12,9 km/h (3 Bft) SW 225 0 min 0,000 mm 0,0 UV-I 0 W/m 2,0 C 2,4 C 20,9 km/h (4 Bft) 99,12 %
12.12.2015 06:00 6,9 C 72 % 1026,1 hPa 0,0 l/m 16,1 km/h (3 Bft) SW 225 0 min 0,051 mm 0,0 UV-I 0 W/m 2,2 C 0,9 C 27,4 km/h (4 Bft) 100,00 %
12.12.2015 06:05 6,9 C 72 % 1026,1 hPa 0,0 l/m 14,5 km/h (3 Bft) SW 225 0 min 0,000 mm 0,0 UV-I 0 W/m 2,2 C 1,6 C 25,7 km/h (4 Bft) 100,00 %
12.12.2015 06:10 6,8 C 72 % 1026,1 hPa 0,0 l/m 17,7 km/h (3 Bft) SW 225 0 min 0,000 mm 0,0 UV-I 0 W/m 2,1 C 0,1 C 24,1 km/h (4 Bft) 100,00 %
12.12.2015 06:15 6,8 C 72 % 1026,1 hPa 0,0 l/m 14,5 km/h (3 Bft) SW 225 0 min 0,000 mm 0,0 UV-I 0 W/m 2,1 C 1,5 C 25,7 km/h (4 Bft) 100,00 %
12.12.2015 06:20 6,9 C 71 % 1026,1 hPa 0,0 l/m 16,1 km/h (3 Bft) SW 225 0 min 0,000 mm 0,0 UV-I 0 W/m 2,0 C 0,9 C 22,5 km/h (4 Bft) 100,00 %
12.12.2015 06:25 6,9 C 72 % 1026,1 hPa 0,0 l/m 16,1 km/h (3 Bft) SW 225 0 min 0,000 mm 0,0 UV-I 0 W/m 2,2 C 0,9 C 25,7 km/h (4 Bft) 100,00 %
12.12.2015 06:30 6,9 C 72 % 1026,0 hPa 0,0 l/m 14,5 km/h (3 Bft) SW 225 0 min 0,000 mm 0,0 UV-I 0 W/m 2,2 C 1,6 C 20,9 km/h (4 Bft) 100,00 %
12.12.2015 06:40 6,9 C 71 % 1026,1 hPa 0,0 l/m 15,9 km/h (3 Bft) S-SW 213 0 min 0,000 mm 0,0 UV-I 0 W/m 2,0 C 1,0 C 24,1 km/h (4 Bft) 98,68 %
12.12.2015 06:45 7,0 C 71 % 1026,1 hPa 0,0 l/m 16,4 km/h (3 Bft) SW 236 0 min 0,000 mm 0,0 UV-I 0 W/m 2,1 C 0,9 C 25,7 km/h (4 Bft) 97,56 %
12.12.2015 06:50 7,1 C 71 % 1026,1 hPa 0,0 l/m 14,4 km/h (3 Bft) W-SW 237 0 min 0,000 mm 0,0 UV-I 0 W/m 2,2 C 1,9 C 24,1 km/h (4 Bft) 95,16 %
12.12.2015 06:55 7,1 C 70 % 1026,0 hPa 0,0 l/m 16,6 km/h (3 Bft) SW 231 0 min 0,000 mm 0,0 UV-I 0 W/m 2,0 C 0,9 C 24,1 km/h (4 Bft) 97,37 %
12.12.2015 07:00 7,2 C 70 % 1026,0 hPa 0,0 l/m 19,5 km/h (3 Bft) W-SW 238 0 min 0,028 mm 0,0 UV-I 0 W/m 2,1 C -0,1 C 32,2 km/h (5 Bft) 97,32 %
12.12.2015 07:05 7,2 C 70 % 1026,1 hPa 0,0 l/m 17,3 km/h (3 Bft) W-SW 257 0 min 0,000 mm 0,0 UV-I 0 W/m 2,1 C 0,7 C 25,7 km/h (4 Bft) 97,39 %
12.12.2015 07:10 7,2 C 70 % 1026,0 hPa 0,0 l/m 17,6 km/h (3 Bft) SW 234 0 min 0,000 mm 0,0 UV-I 0 W/m 2,1 C 0,6 C 32,2 km/h (5 Bft) 98,00 %
12.12.2015 07:15 7,3 C 70 % 1026,0 hPa 0,0 l/m 19,1 km/h (3 Bft) SW 222 0 min 0,000 mm 0,0 UV-I 0 W/m 2,2 C 0,1 C 25,7 km/h (4 Bft) 100,00 %
12.12.2015 07:20 7,3 C 70 % 1026,0 hPa 0,0 l/m 19,4 km/h (3 Bft) S-SW 207 0 min 0,000 mm 0,0 UV-I 0 W/m 2,2 C 0,0 C 30,6 km/h (5 Bft) 99,15 %
12.12.2015 07:25 7,3 C 70 % 1025,9 hPa 0,0 l/m 16,9 km/h (3 Bft) W-SW 250 0 min 0,000 mm 0,0 UV-I 0 W/m 2,2 C 1,0 C 17,7 km/h (3 Bft) 99,15 %
12.12.2015 07:30 7,3 C 69 % 1025,9 hPa 0,0 l/m 18,7 km/h (3 Bft) SW 226 0 min 0,000 mm 0,0 UV-I 0 W/m 2,0 C 0,3 C 32,2 km/h (5 Bft) 99,15 %
12.12.2015 07:35 7,3 C 70 % 1025,8 hPa 0,0 l/m 17,3 km/h (3 Bft) SW 217 0 min 0,000 mm 0,0 UV-I 0 W/m 2,2 C 0,8 C 29,0 km/h (5 Bft) 99,15 %
12.12.2015 07:40 7,3 C 70 % 1025,9 hPa 0,0 l/m 19,6 km/h (3 Bft) W-SW 240 0 min 0,000 mm 0,0 UV-I 0 W/m 2,2 C -0,1 C 33,8 km/h (5 Bft) 100,00 %
12.12.2015 07:45 7,3 C 70 % 1025,9 hPa 0,0 l/m 20,3 km/h (4 Bft) SW 227 0 min 0,000 mm 0,0 UV-I 0 W/m 2,2 C -0,3 C 35,4 km/h (5 Bft) 100,00 %
12.12.2015 07:50 7,3 C 69 % 1025,9 hPa 0,0 l/m 20,4 km/h (4 Bft) W-SW 237 0 min 0,000 mm 0,0 UV-I 0 W/m 2,0 C -0,3 C 30,6 km/h (5 Bft) 99,00 %
12.12.2015 07:55 7,3 C 69 % 1025,9 hPa 0,0 l/m 19,6 km/h (3 Bft) SW 229 0 min 0,000 mm 0,0 UV-I 0 W/m 2,0 C -0,1 C 30,6 km/h (5 Bft) 100,00 %
12.12.2015 08:00 7,4 C 69 % 1025,9 hPa 0,0 l/m 18,8 km/h (3 Bft) W-SW 249 0 min 0,050 mm 0,0 UV-I 6 W/m 2,1 C 0,4 C 32,2 km/h (5 Bft) 100,00 %
12.12.2015 08:05 7,5 C 68 % 1025,8 hPa 0,0 l/m 22,0 km/h (4 Bft) SW 231 0 min 0,000 mm 0,0 UV-I 10 W/m 2,0 C -0,6 C 37,0 km/h (5 Bft) 100,00 %
12.12.2015 08:10 7,5 C 68 % 1025,8 hPa 0,0 l/m 20,6 km/h (4 Bft) W 263 0 min 0,000 mm 0,0 UV-I 11 W/m 2,0 C -0,2 C 32,2 km/h (5 Bft) 99,15 %
12.12.2015 08:15 7,5 C 68 % 1025,9 hPa 0,0 l/m 21,6 km/h (4 Bft) S-SW 201 0 min 0,000 mm 0,0 UV-I 12 W/m 2,0 C -0,5 C 32,2 km/h (5 Bft) 99,00 %
12.12.2015 08:30 7,6 C 67 % 1026,0 hPa 0,0 l/m 19,8 km/h (3 Bft) W 266 0 min 0,000 mm 0,0 UV-I 15 W/m 1,9 C 0,3 C 33,8 km/h (5 Bft) 100,00 %
12.12.2015 08:35 7,7 C 67 % 1026,0 hPa 0,0 l/m 18,0 km/h (3 Bft) W-SW 238 0 min 0,000 mm 0,0 UV-I 11 W/m 2,0 C 1,1 C 32,2 km/h (5 Bft) 98,33 %
12.12.2015 08:40 7,6 C 67 % 1026,0 hPa 0,0 l/m 17,6 km/h (3 Bft) SW 219 0 min 0,000 mm 0,0 UV-I 11 W/m 1,9 C 1,1 C 27,4 km/h (4 Bft) 97,46 %
12.12.2015 08:45 7,7 C 67 % 1026,0 hPa 0,0 l/m 17,4 km/h (3 Bft) SW 234 0 min 0,000 mm 0,0 UV-I 12 W/m 2,0 C 1,3 C 29,0 km/h (5 Bft) 96,43 %
12.12.2015 08:50 7,7 C 67 % 1026,1 hPa 0,0 l/m 18,1 km/h (3 Bft) S-SW 213 0 min 0,000 mm 0,0 UV-I 11 W/m 2,0 C 1,0 C 25,7 km/h (4 Bft) 96,67 %
12.12.2015 08:55 7,7 C 67 % 1026,1 hPa 0,0 l/m 17,9 km/h (3 Bft) W-SW 242 0 min 0,000 mm 0,0 UV-I 12 W/m 2,0 C 1,1 C 27,4 km/h (4 Bft) 97,58 %
12.12.2015 09:00 7,7 C 67 % 1026,1 hPa 0,0 l/m 15,0 km/h (3 Bft) SW 236 0 min 0,077 mm 0,0 UV-I 15 W/m 2,0 C 2,3 C 24,1 km/h (4 Bft) 96,49 %
12.12.2015 09:05 7,7 C 67 % 1026,1 hPa 0,0 l/m 16,7 km/h (3 Bft) W 265 0 min 0,000 mm 0,0 UV-I 20 W/m 2,0 C 1,6 C 25,7 km/h (4 Bft) 98,21 %
12.12.2015 09:10 7,7 C 67 % 1026,0 hPa 0,0 l/m 18,2 km/h (3 Bft) W 263 0 min 0,000 mm 0,0 UV-I 25 W/m 2,0 C 1,0 C 27,4 km/h (4 Bft) 99,17 %
12.12.2015 09:15 7,7 C 68 % 1026,0 hPa 0,0 l/m 14,9 km/h (3 Bft) SW 223 0 min 0,000 mm 0,0 UV-I 31 W/m 2,2 C 2,4 C 25,7 km/h (4 Bft) 98,20 %
12.12.2015 09:20 7,8 C 67 % 1026,0 hPa 0,0 l/m 17,4 km/h (3 Bft) W-SW 247 0 min 0,000 mm 0,0 UV-I 40 W/m 2,1 C 1,4 C 27,4 km/h (4 Bft) 100,00 %
12.12.2015 09:25 7,8 C 67 % 1026,0 hPa 0,0 l/m 17,7 km/h (3 Bft) SW 228 0 min 0,000 mm 0,0 UV-I 40 W/m 2,1 C 1,3 C 32,2 km/h (5 Bft) 100,00 %
12.12.2015 09:30 7,9 C 65 % 1026,1 hPa 0,0 l/m 17,9 km/h (3 Bft) S 182 0 min 0,000 mm 0,0 UV-I 26 W/m 1,7 C 1,4 C 30,6 km/h (5 Bft) 99,17 %
12.12.2015 09:35 7,9 C 65 % 1026,1 hPa 0,0 l/m 14,8 km/h (3 Bft) SW 234 0 min 0,000 mm 0,0 UV-I 25 W/m 1,7 C 2,7 C 24,1 km/h (4 Bft) 99,15 %
12.12.2015 09:40 7,9 C 66 % 1026,1 hPa 0,0 l/m 15,5 km/h (3 Bft) SW 214 0 min 0,000 mm 0,0 UV-I 27 W/m 1,9 C 2,4 C 24,1 km/h (4 Bft) 99,15 %
12.12.2015 09:45 7,9 C 66 % 1026,1 hPa 0,0 l/m 18,1 km/h (3 Bft) SW 225 0 min 0,000 mm 0,0 UV-I 26 W/m 1,9 C 1,3 C 30,6 km/h (5 Bft) 100,00 %
12.12.2015 09:50 7,9 C 66 % 1026,2 hPa 0,0 l/m 15,2 km/h (3 Bft) S-SW 196 0 min 0,000 mm 0,0 UV-I 30 W/m 1,9 C 2,5 C 24,1 km/h (4 Bft) 100,00 %
12.12.2015 09:55 7,9 C 66 % 1026,2 hPa 0,0 l/m 16,0 km/h (3 Bft) S-SW 207 0 min 0,000 mm 0,0 UV-I 32 W/m 1,9 C 2,1 C 30,6 km/h (5 Bft) 100,00 %
12.12.2015 10:00 7,8 C 68 % 1026,1 hPa 0,0 l/m 15,5 km/h (3 Bft) SW 221 0 min 0,076 mm 0,0 UV-I 39 W/m 2,3 C 2,2 C 27,4 km/h (4 Bft) 99,11 %
12.12.2015 10:05 7,7 C 69 % 1026,2 hPa 0,0 l/m 16,6 km/h (3 Bft) SW 234 0 min 0,000 mm 0,0 UV-I 51 W/m 2,4 C 1,6 C 24,1 km/h (4 Bft) 100,00 %
12.12.2015 10:10 7,8 C 68 % 1026,2 hPa 0,0 l/m 16,5 km/h (3 Bft) S-SW 205 0 min 0,000 mm 0,0 UV-I 60 W/m 2,3 C 1,8 C 25,7 km/h (4 Bft) 100,00 %
12.12.2015 10:15 8,0 C 67 % 1026,2 hPa 0,0 l/m 16,9 km/h (3 Bft) SW 234 0 min 0,000 mm 0,0 UV-I 82 W/m 2,3 C 1,9 C 25,7 km/h (4 Bft) 100,00 %
12.12.2015 10:20 8,1 C 67 % 1026,2 hPa 0,0 l/m 18,5 km/h (3 Bft) SW 230 0 min 0,000 mm 0,0 UV-I 102 W/m 2,3 C 1,4 C 27,4 km/h (4 Bft) 99,10 %
12.12.2015 10:25 8,3 C 66 % 1026,2 hPa 0,0 l/m 17,6 km/h (3 Bft) S 172 0 min 0,000 mm 0,0 UV-I 117 W/m 2,3 C 2,0 C 30,6 km/h (5 Bft) 99,17 %
12.12.2015 10:30 8,4 C 67 % 1026,2 hPa 0,0 l/m 17,7 km/h (3 Bft) W-SW 240 0 min 0,000 mm 0,0 UV-I 130 W/m 2,6 C 2,1 C 25,7 km/h (4 Bft) 99,08 %
12.12.2015 10:35 8,4 C 66 % 1026,2 hPa 0,0 l/m 19,1 km/h (3 Bft) W-SW 238 0 min 0,000 mm 0,0 UV-I 103 W/m 2,4 C 1,5 C 27,4 km/h (4 Bft) 100,00 %
12.12.2015 10:40 8,4 C 65 % 1026,2 hPa 0,0 l/m 18,5 km/h (3 Bft) W-NW 293 0 min 0,000 mm 0,0 UV-I 96 W/m 2,2 C 1,8 C 32,2 km/h (5 Bft) 97,58 %
12.12.2015 10:45 8,5 C 65 % 1026,1 hPa 0,0 l/m 16,5 km/h (3 Bft) W-SW 249 0 min 0,000 mm 0,0 UV-I 92 W/m 2,3 C 2,7 C 32,2 km/h (5 Bft) 98,20 %
12.12.2015 10:50 8,6 C 65 % 1026,1 hPa 0,0 l/m 17,7 km/h (3 Bft) W-SW 247 0 min 0,000 mm 0,0 UV-I 100 W/m 2,4 C 2,3 C 32,2 km/h (5 Bft) 100,00 %
12.12.2015 10:55 8,6 C 65 % 1026,1 hPa 0,0 l/m 17,0 km/h (3 Bft) W-SW 249 0 min 0,000 mm 0,0 UV-I 100 W/m 2,4 C 2,6 C 24,1 km/h (4 Bft) 97,52 %
12.12.2015 11:00 8,6 C 65 % 1026,1 hPa 0,0 l/m 15,2 km/h (3 Bft) W 260 0 min 0,000 mm 0,0 UV-I 98 W/m 2,4 C 3,3 C 22,5 km/h (4 Bft) 97,32 %
12.12.2015 11:05 8,6 C 66 % 1026,1 hPa 0,0 l/m 16,0 km/h (3 Bft) W-SW 250 0 min 0,101 mm 0,0 UV-I 74 W/m 2,6 C 3,0 C 29,0 km/h (5 Bft) 97,56 %
12.12.2015 11:10 8,5 C 68 % 1026,1 hPa 0,0 l/m 16,1 km/h (3 Bft) W-SW 247 0 min 0,000 mm 0,0 UV-I 71 W/m 2,9 C 2,8 C 24,1 km/h (4 Bft) 100,00 %
12.12.2015 11:15 8,3 C 69 % 1026,1 hPa 0,0 l/m 13,9 km/h (3 Bft) W-SW 244 0 min 0,000 mm 0,0 UV-I 72 W/m 3,0 C 3,6 C 20,9 km/h (4 Bft) 97,29 %
12.12.2015 11:20 8,0 C 74 % 1026,1 hPa 0,2 l/m 12,8 km/h (3 Bft) SW 233 0 min 0,000 mm 0,0 UV-I 77 W/m 3,7 C 3,8 C 19,3 km/h (3 Bft) 98,37 %
12.12.2015 11:25 7,7 C 76 % 1026,1 hPa 0,0 l/m 11,1 km/h (2 Bft) S-SW 213 0 min 0,000 mm 0,0 UV-I 71 W/m 3,7 C 4,4 C 19,3 km/h (3 Bft) 100,00 %
12.12.2015 11:30 7,6 C 77 % 1026,1 hPa 0,2 l/m 13,0 km/h (3 Bft) W-SW 238 0 min 0,000 mm 0,0 UV-I 63 W/m 3,8 C 3,2 C 17,7 km/h (3 Bft) 99,24 %
12.12.2015 11:35 7,6 C 78 % 1026,1 hPa 0,0 l/m 12,5 km/h (3 Bft) SW 223 0 min 0,000 mm 0,0 UV-I 69 W/m 4,0 C 3,5 C 17,7 km/h (3 Bft) 99,06 %
12.12.2015 11:40 7,5 C 80 % 1026,1 hPa 0,2 l/m 11,3 km/h (2 Bft) W 261 0 min 0,000 mm 0,0 UV-I 91 W/m 4,3 C 4,0 C 17,7 km/h (3 Bft) 98,39 %
12.12.2015 11:45 7,4 C 82 % 1025,9 hPa 0,0 l/m 11,0 km/h (2 Bft) W-SW 246 0 min 0,000 mm 0,0 UV-I 102 W/m 4,5 C 4,1 C 14,5 km/h (3 Bft) 98,25 %
12.12.2015 11:50 7,3 C 81 % 1025,9 hPa 0,2 l/m 9,0 km/h (2 Bft) SW 236 0 min 0,000 mm 0,0 UV-I 95 W/m 4,3 C 5,3 C 14,5 km/h (3 Bft) 100,00 %
12.12.2015 11:55 7,3 C 83 % 1025,9 hPa 0,0 l/m 9,3 km/h (2 Bft) W-SW 250 0 min 0,000 mm 0,0 UV-I 90 W/m 4,6 C 5,1 C 12,9 km/h (3 Bft) 98,31 %
12.12.2015 12:00 7,3 C 83 % 1025,8 hPa 0,0 l/m 7,2 km/h (2 Bft) W 259 0 min 0,077 mm 0,0 UV-I 83 W/m 4,6 C 6,7 C 11,3 km/h (2 Bft) 98,29 %
12.12.2015 12:05 7,4 C 83 % 1025,8 hPa 0,0 l/m 7,9 km/h (2 Bft) W-SW 252 0 min 0,000 mm 0,0 UV-I 91 W/m 4,7 C 6,2 C 14,5 km/h (3 Bft) 100,00 %
12.12.2015 12:10 7,6 C 83 % 1025,7 hPa 0,2 l/m 7,6 km/h (2 Bft) SW 225 0 min 0,000 mm 0,0 UV-I 112 W/m 4,9 C 6,6 C 11,3 km/h (2 Bft) 99,15 %
12.12.2015 12:15 7,7 C 83 % 1025,7 hPa 0,0 l/m 7,7 km/h (2 Bft) W-SW 246 0 min 0,000 mm 0,0 UV-I 122 W/m 5,0 C 6,7 C 12,9 km/h (3 Bft) 97,52 %
12.12.2015 12:20 7,7 C 83 % 1025,7 hPa 0,0 l/m 7,4 km/h (2 Bft) SW 225 0 min 0,000 mm 0,0 UV-I 99 W/m 5,0 C 6,9 C 12,9 km/h (3 Bft) 100,00 %
12.12.2015 12:25 7,8 C 83 % 1025,6 hPa 0,0 l/m 7,7 km/h (2 Bft) W-SW 248 0 min 0,000 mm 0,0 UV-I 98 W/m 5,1 C 6,8 C 11,3 km/h (2 Bft) 99,12 %
12.12.2015 12:30 7,8 C 83 % 1025,7 hPa 0,0 l/m 7,3 km/h (2 Bft) W 262 0 min 0,000 mm 0,0 UV-I 118 W/m 5,1 C 7,1 C 12,9 km/h (3 Bft) 99,15 %
12.12.2015 12:35 7,9 C 83 % 1025,5 hPa 0,0 l/m 7,3 km/h (2 Bft) W-SW 240 0 min 0,000 mm 0,0 UV-I 116 W/m 5,2 C 7,2 C 12,9 km/h (3 Bft) 97,39 %
12.12.2015 12:40 7,9 C 82 % 1025,5 hPa 0,0 l/m 9,5 km/h (2 Bft) S-SW 207 0 min 0,000 mm 0,0 UV-I 66 W/m 5,0 C 5,6 C 16,1 km/h (3 Bft) 100,00 %
12.12.2015 12:45 8,0 C 81 % 1025,4 hPa 0,0 l/m 10,9 km/h (2 Bft) SW 228 0 min 0,000 mm 0,0 UV-I 62 W/m 4,9 C 4,8 C 16,1 km/h (3 Bft) 94,64 %
12.12.2015 12:50 8,1 C 79 % 1025,4 hPa 0,0 l/m 12,4 km/h (3 Bft) W-SW 244 0 min 0,000 mm 0,0 UV-I 88 W/m 4,7 C 4,1 C 19,3 km/h (3 Bft) 95,88 %
12.12.2015 12:55 8,2 C 79 % 1025,3 hPa 0,0 l/m 11,2 km/h (2 Bft) SW 221 0 min 0,000 mm 0,0 UV-I 108 W/m 4,8 C 4,9 C 19,3 km/h (3 Bft) 96,30 %
12.12.2015 13:00 8,3 C 79 % 1025,3 hPa 0,0 l/m 12,6 km/h (3 Bft) W-SW 254 0 min 0,050 mm 0,0 UV-I 107 W/m 4,9 C 4,2 C 19,3 km/h (3 Bft) 96,06 %
12.12.2015 13:05 8,3 C 78 % 1025,2 hPa 0,0 l/m 11,2 km/h (2 Bft) W-SW 255 0 min 0,000 mm 0,0 UV-I 86 W/m 4,7 C 5,0 C 16,1 km/h (3 Bft) 98,25 %
12.12.2015 13:10 8,4 C 77 % 1025,2 hPa 0,0 l/m 11,0 km/h (2 Bft) W-SW 242 0 min 0,000 mm 0,0 UV-I 57 W/m 4,6 C 5,2 C 17,7 km/h (3 Bft) 96,61 %
12.12.2015 13:15 8,6 C 76 % 1025,2 hPa 0,0 l/m 13,7 km/h (3 Bft) SW 220 0 min 0,000 mm 0,0 UV-I 52 W/m 4,6 C 4,0 C 20,9 km/h (4 Bft) 96,33 %
12.12.2015 13:20 8,6 C 76 % 1025,2 hPa 0,0 l/m 13,5 km/h (3 Bft) SW 235 0 min 0,000 mm 0,0 UV-I 49 W/m 4,6 C 4,1 C 20,9 km/h (4 Bft) 99,17 %
12.12.2015 13:25 8,7 C 75 % 1025,0 hPa 0,0 l/m 12,5 km/h (3 Bft) W-SW 258 0 min 0,000 mm 0,0 UV-I 44 W/m 4,5 C 4,8 C 20,9 km/h (4 Bft) 96,33 %
12.12.2015 13:30 8,7 C 76 % 1025,0 hPa 0,0 l/m 12,5 km/h (3 Bft) SW 233 0 min 0,000 mm 0,0 UV-I 49 W/m 4,7 C 4,8 C 19,3 km/h (3 Bft) 99,22 %
12.12.2015 13:35 8,7 C 75 % 1024,9 hPa 0,0 l/m 10,4 km/h (2 Bft) W-SW 244 0 min 0,000 mm 0,0 UV-I 46 W/m 4,5 C 5,9 C 20,9 km/h (4 Bft) 99,15 %
12.12.2015 13:40 8,7 C 76 % 1024,9 hPa 0,0 l/m 9,4 km/h (2 Bft) W-SW 238 0 min 0,000 mm 0,0 UV-I 41 W/m 4,7 C 6,5 C 16,1 km/h (3 Bft) 99,06 %
12.12.2015 13:45 8,7 C 76 % 1025,0 hPa 0,0 l/m 8,7 km/h (2 Bft) W 260 0 min 0,000 mm 0,0 UV-I 34 W/m 4,7 C 7,0 C 14,5 km/h (3 Bft) 99,21 %
12.12.2015 13:50 8,7 C 76 % 1025,0 hPa 0,0 l/m 9,7 km/h (2 Bft) W-SW 252 0 min 0,000 mm 0,0 UV-I 31 W/m 4,7 C 6,3 C 14,5 km/h (3 Bft) 100,00 %
12.12.2015 13:55 8,7 C 76 % 1024,9 hPa 0,0 l/m 9,7 km/h (2 Bft) W-SW 257 0 min 0,000 mm 0,0 UV-I 29 W/m 4,7 C 6,3 C 14,5 km/h (3 Bft) 99,15 %
12.12.2015 14:00 8,7 C 76 % 1024,9 hPa 0,0 l/m 9,6 km/h (2 Bft) W-SW 247 0 min 0,051 mm 0,0 UV-I 34 W/m 4,7 C 6,4 C 14,5 km/h (3 Bft) 99,15 %
12.12.2015 14:05 8,7 C 76 % 1025,0 hPa 0,0 l/m 9,8 km/h (2 Bft) W-SW 246 0 min 0,000 mm 0,0 UV-I 35 W/m 4,7 C 6,3 C 12,9 km/h (3 Bft) 97,46 %
12.12.2015 14:10 8,7 C 76 % 1024,9 hPa 0,0 l/m 8,3 km/h (2 Bft) W-SW 250 0 min 0,000 mm 0,0 UV-I 37 W/m 4,7 C 7,3 C 12,9 km/h (3 Bft) 99,15 %
12.12.2015 14:15 8,7 C 76 % 1024,9 hPa 0,0 l/m 7,8 km/h (2 Bft) W-SW 252 0 min 0,000 mm 0,0 UV-I 48 W/m 4,7 C 7,6 C 12,9 km/h (3 Bft) 97,52 %
12.12.2015 14:20 8,7 C 76 % 1024,9 hPa 0,0 l/m 5,0 km/h (1 Bft) W-SW 254 0 min 0,000 mm 0,0 UV-I 61 W/m 4,7 C 8,7 C 6,4 km/h (2 Bft) 98,17 %
12.12.2015 14:25 8,7 C 76 % 1024,9 hPa 0,0 l/m 4,4 km/h (1 Bft) W 271 0 min 0,000 mm 0,0 UV-I 57 W/m 4,7 C 8,7 C 6,4 km/h (2 Bft) 98,41 %
12.12.2015 14:30 8,8 C 76 % 1024,9 hPa 0,0 l/m 6,0 km/h (2 Bft) SW 229 0 min 0,000 mm 0,0 UV-I 52 W/m 4,8 C 8,8 C 16,1 km/h (3 Bft) 99,08 %
12.12.2015 14:35 8,8 C 78 % 1024,8 hPa 0,0 l/m 4,8 km/h (1 Bft) W-SW 242 0 min 0,000 mm 0,0 UV-I 46 W/m 5,2 C 8,8 C 8,0 km/h (2 Bft) 100,00 %
12.12.2015 14:40 8,7 C 77 % 1024,8 hPa 0,0 l/m 4,6 km/h (1 Bft) SW 225 0 min 0,000 mm 0,0 UV-I 33 W/m 4,9 C 8,7 C 6,4 km/h (2 Bft) 100,00 %
12.12.2015 14:45 8,7 C 78 % 1024,8 hPa 0,0 l/m 4,6 km/h (1 Bft) SW 218 0 min 0,000 mm 0,0 UV-I 24 W/m 5,1 C 8,7 C 8,0 km/h (2 Bft) 100,00 %
12.12.2015 14:50 8,7 C 78 % 1024,8 hPa 0,2 l/m 5,8 km/h (2 Bft) SW 221 0 min 0,000 mm 0,0 UV-I 26 W/m 5,1 C 8,7 C 9,7 km/h (2 Bft) 97,56 %
12.12.2015 14:55 8,6 C 79 % 1024,9 hPa 0,0 l/m 5,7 km/h (1 Bft) SW 215 0 min 0,000 mm 0,0 UV-I 28 W/m 5,2 C 8,6 C 9,7 km/h (2 Bft) 94,07 %
12.12.2015 15:00 8,4 C 79 % 1025,0 hPa 0,0 l/m 5,4 km/h (1 Bft) W-SW 246 0 min 0,026 mm 0,0 UV-I 18 W/m 5,0 C 8,4 C 9,7 km/h (2 Bft) 97,25 %
12.12.2015 15:05 8,3 C 82 % 1025,0 hPa 0,0 l/m 4,1 km/h (1 Bft) SW 218 0 min 0,000 mm 0,0 UV-I 19 W/m 5,4 C 8,3 C 6,4 km/h (2 Bft) 95,24 %
12.12.2015 15:10 8,2 C 81 % 1024,9 hPa 0,0 l/m 4,7 km/h (1 Bft) SW 229 0 min 0,000 mm 0,0 UV-I 19 W/m 5,1 C 8,2 C 8,0 km/h (2 Bft) 94,92 %
12.12.2015 15:15 8,3 C 80 % 1025,0 hPa 0,0 l/m 4,3 km/h (1 Bft) W 260 0 min 0,000 mm 0,0 UV-I 16 W/m 5,1 C 8,3 C 6,4 km/h (2 Bft) 97,25 %
12.12.2015 15:20 8,3 C 81 % 1025,0 hPa 0,0 l/m 2,1 km/h (1 Bft) W 268 0 min 0,000 mm 0,0 UV-I 16 W/m 5,2 C 8,3 C 4,8 km/h (1 Bft) 95,93 %
12.12.2015 15:25 8,2 C 81 % 1025,0 hPa 0,0 l/m 1,6 km/h (1 Bft) W 268 0 min 0,000 mm 0,0 UV-I 13 W/m 5,1 C 8,2 C 3,2 km/h (1 Bft) 97,32 %
12.12.2015 15:30 8,1 C 82 % 1024,9 hPa 0,0 l/m 1,4 km/h (1 Bft) W 268 0 min 0,000 mm 0,0 UV-I 12 W/m 5,2 C 8,1 C 4,8 km/h (1 Bft) 97,44 %
12.12.2015 15:35 8,0 C 83 % 1024,9 hPa 0,0 l/m 1,4 km/h (1 Bft) W-SW 249 0 min 0,000 mm 0,0 UV-I 10 W/m 5,3 C 8,0 C 3,2 km/h (1 Bft) 100,00 %
12.12.2015 15:40 8,0 C 80 % 1024,9 hPa 0,0 l/m 2,6 km/h (1 Bft) W-SW 254 0 min 0,000 mm 0,0 UV-I 9 W/m 4,8 C 8,0 C 6,4 km/h (2 Bft) 99,06 %
12.12.2015 15:45 8,2 C 79 % 1024,9 hPa 0,0 l/m 4,3 km/h (1 Bft) SW 225 0 min 0,000 mm 0,0 UV-I 9 W/m 4,8 C 8,2 C 8,0 km/h (2 Bft) 100,00 %
12.12.2015 15:50 8,3 C 78 % 1024,9 hPa 0,0 l/m 4,3 km/h (1 Bft) W-SW 240 0 min 0,000 mm 0,0 UV-I 9 W/m 4,7 C 8,3 C 6,4 km/h (2 Bft) 100,00 %
12.12.2015 15:55 8,3 C 78 % 1024,9 hPa 0,0 l/m 5,3 km/h (1 Bft) S-SW 213 0 min 0,000 mm 0,0 UV-I 7 W/m 4,7 C 8,3 C 9,7 km/h (2 Bft) 98,31 %
12.12.2015 16:00 8,3 C 77 % 1024,9 hPa 0,0 l/m 8,0 km/h (2 Bft) W-SW 250 0 min 0,000 mm 0,0 UV-I 3 W/m 4,5 C 7,1 C 14,5 km/h (3 Bft) 100,00 %
12.12.2015 16:05 8,3 C 76 % 1024,9 hPa 0,0 l/m 7,4 km/h (2 Bft) W-SW 253 0 min 0,025 mm 0,0 UV-I 0 W/m 4,3 C 7,5 C 16,1 km/h (3 Bft) 100,00 %
12.12.2015 16:10 8,4 C 76 % 1024,9 hPa 0,0 l/m 5,3 km/h (1 Bft) S-SW 200 0 min 0,000 mm 0,0 UV-I 0 W/m 4,4 C 8,4 C 9,7 km/h (2 Bft) 98,29 %
12.12.2015 16:15 8,3 C 76 % 1025,0 hPa 0,0 l/m 5,2 km/h (1 Bft) SW 234 0 min 0,000 mm 0,0 UV-I 0 W/m 4,3 C 8,3 C 8,0 km/h (2 Bft) 100,00 %
12.12.2015 16:20 8,3 C 77 % 1025,0 hPa 0,0 l/m 5,0 km/h (1 Bft) SW 226 0 min 0,000 mm 0,0 UV-I 0 W/m 4,5 C 8,3 C 9,7 km/h (2 Bft) 98,35 %
12.12.2015 16:25 8,2 C 77 % 1024,9 hPa 0,0 l/m 6,0 km/h (2 Bft) S-SW 207 0 min 0,000 mm 0,0 UV-I 0 W/m 4,4 C 8,2 C 8,0 km/h (2 Bft) 97,44 %
12.12.2015 16:30 8,3 C 76 % 1025,0 hPa 0,0 l/m 6,4 km/h (2 Bft) SW 230 0 min 0,000 mm 0,0 UV-I 0 W/m 4,3 C 8,3 C 9,7 km/h (2 Bft) 99,13 %
12.12.2015 16:35 8,3 C 75 % 1024,8 hPa 0,0 l/m 5,3 km/h (1 Bft) S 188 0 min 0,000 mm 0,0 UV-I 0 W/m 4,1 C 8,3 C 9,7 km/h (2 Bft) 98,26 %
12.12.2015 16:40 8,4 C 74 % 1024,9 hPa 0,0 l/m 5,8 km/h (2 Bft) W-SW 248 0 min 0,000 mm 0,0 UV-I 0 W/m 4,0 C 8,4 C 9,7 km/h (2 Bft) 100,00 %
12.12.2015 16:45 8,4 C 74 % 1024,9 hPa 0,0 l/m 6,2 km/h (2 Bft) SW 230 0 min 0,000 mm 0,0 UV-I 0 W/m 4,0 C 8,4 C 9,7 km/h (2 Bft) 100,00 %
12.12.2015 16:50 8,4 C 74 % 1024,9 hPa 0,0 l/m 4,9 km/h (1 Bft) S-SW 205 0 min 0,000 mm 0,0 UV-I 0 W/m 4,0 C 8,4 C 8,0 km/h (2 Bft) 97,37 %
12.12.2015 16:55 8,4 C 74 % 1024,9 hPa 0,0 l/m 5,9 km/h (2 Bft) S-SW 213 0 min 0,000 mm 0,0 UV-I 0 W/m 4,0 C 8,4 C 14,5 km/h (3 Bft) 99,17 %
12.12.2015 17:00 8,3 C 75 % 1024,9 hPa 0,0 l/m 5,9 km/h (2 Bft) S-SW 200 0 min 0,025 mm 0,0 UV-I 0 W/m 4,1 C 8,3 C 11,3 km/h (2 Bft) 94,50 %
12.12.2015 17:05 8,3 C 74 % 1024,9 hPa 0,0 l/m 4,7 km/h (1 Bft) SW 232 0 min 0,000 mm 0,0 UV-I 0 W/m 3,9 C 8,3 C 8,0 km/h (2 Bft) 94,87 %
12.12.2015 17:10 8,3 C 74 % 1024,9 hPa 0,0 l/m 3,0 km/h (1 Bft) SW 234 0 min 0,000 mm 0,0 UV-I 0 W/m 3,9 C 8,3 C 4,8 km/h (1 Bft) 94,92 %
12.12.2015 17:15 8,2 C 75 % 1024,8 hPa 0,0 l/m 2,2 km/h (1 Bft) SW 234 0 min 0,000 mm 0,0 UV-I 0 W/m 4,0 C 8,2 C 4,8 km/h (1 Bft) 92,17 %
12.12.2015 17:20 8,2 C 76 % 1024,8 hPa 0,0 l/m 2,4 km/h (1 Bft) SW 234 0 min 0,000 mm 0,0 UV-I 0 W/m 4,2 C 8,2 C 4,8 km/h (1 Bft) 94,17 %
12.12.2015 17:25 8,1 C 76 % 1024,8 hPa 0,0 l/m 4,1 km/h (1 Bft) S-SW 194 0 min 0,000 mm 0,0 UV-I 0 W/m 4,1 C 8,1 C 6,4 km/h (2 Bft) 95,87 %
12.12.2015 17:30 7,9 C 77 % 1024,8 hPa 0,0 l/m 3,8 km/h (1 Bft) SW 229 0 min 0,000 mm 0,0 UV-I 0 W/m 4,1 C 7,9 C 6,4 km/h (2 Bft) 98,25 %
12.12.2015 17:35 8,0 C 77 % 1024,8 hPa 0,0 l/m 4,0 km/h (1 Bft) SW 236 0 min 0,000 mm 0,0 UV-I 0 W/m 4,2 C 8,0 C 8,0 km/h (2 Bft) 95,54 %
12.12.2015 17:40 8,0 C 77 % 1024,8 hPa 0,0 l/m 4,4 km/h (1 Bft) SW 225 0 min 0,000 mm 0,0 UV-I 0 W/m 4,2 C 8,0 C 6,4 km/h (2 Bft) 100,00 %
12.12.2015 17:45 7,9 C 77 % 1024,8 hPa 0,0 l/m 3,4 km/h (1 Bft) SW 223 0 min 0,000 mm 0,0 UV-I 0 W/m 4,1 C 7,9 C 4,8 km/h (1 Bft) 98,33 %
12.12.2015 17:50 7,9 C 77 % 1024,9 hPa 0,0 l/m 4,1 km/h (1 Bft) SW 226 0 min 0,000 mm 0,0 UV-I 0 W/m 4,1 C 7,9 C 6,4 km/h (2 Bft) 100,00 %
12.12.2015 17:55 7,9 C 78 % 1024,9 hPa 0,0 l/m 2,7 km/h (1 Bft) SW 226 0 min 0,000 mm 0,0 UV-I 0 W/m 4,3 C 7,9 C 4,8 km/h (1 Bft) 99,13 %
12.12.2015 18:00 7,8 C 78 % 1024,8 hPa 0,0 l/m 3,6 km/h (1 Bft) SW 229 0 min 0,000 mm 0,0 UV-I 0 W/m 4,2 C 7,8 C 4,8 km/h (1 Bft) 99,19 %
12.12.2015 18:05 7,8 C 77 % 1024,8 hPa 0,0 l/m 3,7 km/h (1 Bft) S-SW 212 0 min 0,000 mm 0,0 UV-I 0 W/m 4,0 C 7,8 C 6,4 km/h (2 Bft) 97,32 %
12.12.2015 18:10 7,9 C 77 % 1024,7 hPa 0,0 l/m 4,4 km/h (1 Bft) S-SW 212 0 min 0,000 mm 0,0 UV-I 0 W/m 4,1 C 7,9 C 6,4 km/h (2 Bft) 97,62 %
12.12.2015 18:15 7,9 C 76 % 1024,7 hPa 0,0 l/m 4,5 km/h (1 Bft) W-SW 243 0 min 0,000 mm 0,0 UV-I 0 W/m 3,9 C 7,9 C 8,0 km/h (2 Bft) 100,00 %
12.12.2015 18:20 7,9 C 76 % 1024,6 hPa 0,0 l/m 4,8 km/h (1 Bft) SW 233 0 min 0,000 mm 0,0 UV-I 0 W/m 3,9 C 7,9 C 6,4 km/h (2 Bft) 100,00 %
12.12.2015 18:25 7,9 C 77 % 1024,5 hPa 0,0 l/m 4,0 km/h (1 Bft) SW 216 0 min 0,000 mm 0,0 UV-I 0 W/m 4,1 C 7,9 C 6,4 km/h (2 Bft) 99,06 %
12.12.2015 18:30 7,9 C 76 % 1024,5 hPa 0,0 l/m 4,0 km/h (1 Bft) SW 223 0 min 0,000 mm 0,0 UV-I 0 W/m 3,9 C 7,9 C 6,4 km/h (2 Bft) 100,00 %
12.12.2015 18:35 8,0 C 75 % 1024,4 hPa 0,0 l/m 4,3 km/h (1 Bft) S-SW 201 0 min 0,000 mm 0,0 UV-I 0 W/m 3,8 C 8,0 C 6,4 km/h (2 Bft) 97,48 %
12.12.2015 18:40 8,1 C 75 % 1024,3 hPa 0,0 l/m 4,1 km/h (1 Bft) S-SW 202 0 min 0,000 mm 0,0 UV-I 0 W/m 3,9 C 8,1 C 6,4 km/h (2 Bft) 100,00 %
12.12.2015 18:45 8,0 C 75 % 1024,3 hPa 0,0 l/m 5,1 km/h (1 Bft) S-SW 192 0 min 0,000 mm 0,0 UV-I 0 W/m 3,8 C 8,0 C 6,4 km/h (2 Bft) 99,15 %
12.12.2015 18:50 7,7 C 77 % 1024,3 hPa 0,0 l/m 3,1 km/h (1 Bft) S-SW 193 0 min 0,000 mm 0,0 UV-I 0 W/m 3,9 C 7,7 C 4,8 km/h (1 Bft) 98,29 %
12.12.2015 18:55 7,7 C 77 % 1024,4 hPa 0,0 l/m 2,7 km/h (1 Bft) S-SW 205 0 min 0,000 mm 0,0 UV-I 0 W/m 3,9 C 7,7 C 4,8 km/h (1 Bft) 99,08 %
12.12.2015 19:00 7,6 C 79 % 1024,3 hPa 0,0 l/m 3,6 km/h (1 Bft) SW 220 0 min 0,026 mm 0,0 UV-I 0 W/m 4,2 C 7,6 C 4,8 km/h (1 Bft) 97,46 %
12.12.2015 19:05 7,4 C 80 % 1024,2 hPa 0,0 l/m 3,4 km/h (1 Bft) SW 220 0 min 0,000 mm 0,0 UV-I 0 W/m 4,2 C 7,4 C 4,8 km/h (1 Bft) 100,00 %
12.12.2015 19:10 7,3 C 79 % 1024,2 hPa 0,0 l/m 4,3 km/h (1 Bft) S-SW 205 0 min 0,000 mm 0,0 UV-I 0 W/m 3,9 C 7,3 C 6,4 km/h (2 Bft) 95,87 %
12.12.2015 19:15 7,5 C 77 % 1024,2 hPa 0,0 l/m 5,0 km/h (1 Bft) SW 221 0 min 0,000 mm 0,0 UV-I 0 W/m 3,7 C 7,5 C 8,0 km/h (2 Bft) 97,46 %
12.12.2015 19:20 7,6 C 77 % 1024,1 hPa 0,0 l/m 4,2 km/h (1 Bft) S-SW 197 0 min 0,000 mm 0,0 UV-I 0 W/m 3,8 C 7,6 C 8,0 km/h (2 Bft) 95,73 %
12.12.2015 19:25 7,3 C 78 % 1024,0 hPa 0,0 l/m 4,7 km/h (1 Bft) S 170 0 min 0,000 mm 0,0 UV-I 0 W/m 3,7 C 7,3 C 6,4 km/h (2 Bft) 96,61 %
12.12.2015 19:30 7,2 C 79 % 1024,0 hPa 0,0 l/m 3,8 km/h (1 Bft) S 171 0 min 0,000 mm 0,0 UV-I 0 W/m 3,8 C 7,2 C 6,4 km/h (2 Bft) 96,33 %
12.12.2015 19:35 7,1 C 80 % 1024,0 hPa 0,0 l/m 2,5 km/h (1 Bft) S-SO 168 0 min 0,000 mm 0,0 UV-I 0 W/m 3,9 C 7,1 C 6,4 km/h (2 Bft) 94,87 %
12.12.2015 19:40 7,1 C 80 % 1024,0 hPa 0,0 l/m 3,6 km/h (1 Bft) S 171 0 min 0,000 mm 0,0 UV-I 0 W/m 3,9 C 7,1 C 6,4 km/h (2 Bft) 96,61 %
12.12.2015 19:45 7,1 C 79 % 1024,0 hPa 0,0 l/m 2,4 km/h (1 Bft) S 170 0 min 0,000 mm 0,0 UV-I 0 W/m 3,7 C 7,1 C 6,4 km/h (2 Bft) 95,00 %
12.12.2015 19:50 7,2 C 79 % 1023,9 hPa 0,0 l/m 1,4 km/h (1 Bft) S 170 0 min 0,000 mm 0,0 UV-I 0 W/m 3,8 C 7,2 C 3,2 km/h (1 Bft) 97,46 %
12.12.2015 19:55 7,1 C 79 % 1023,8 hPa 0,0 l/m 3,1 km/h (1 Bft) S 169 0 min 0,000 mm 0,0 UV-I 0 W/m 3,7 C 7,1 C 6,4 km/h (2 Bft) 98,17 %
12.12.2015 20:00 7,0 C 79 % 1023,8 hPa 0,0 l/m 2,4 km/h (1 Bft) S 186 0 min 0,000 mm 0,0 UV-I 0 W/m 3,6 C 7,0 C 6,4 km/h (2 Bft) 95,83 %
12.12.2015 20:05 6,9 C 80 % 1023,7 hPa 0,0 l/m 2,8 km/h (1 Bft) S-SO 167 0 min 0,000 mm 0,0 UV-I 0 W/m 3,7 C 6,9 C 6,4 km/h (2 Bft) 100,00 %
12.12.2015 20:10 6,8 C 81 % 1023,7 hPa 0,0 l/m 3,9 km/h (1 Bft) S-SW 196 0 min 0,000 mm 0,0 UV-I 0 W/m 3,8 C 6,8 C 8,0 km/h (2 Bft) 96,67 %
12.12.2015 20:15 6,3 C 84 % 1023,7 hPa 0,0 l/m 2,7 km/h (1 Bft) NW 306 0 min 0,000 mm 0,0 UV-I 0 W/m 3,8 C 6,3 C 4,8 km/h (1 Bft) 98,31 %
12.12.2015 20:20 6,2 C 84 % 1023,8 hPa 0,0 l/m 2,5 km/h (1 Bft) W-SW 254 0 min 0,000 mm 0,0 UV-I 0 W/m 3,7 C 6,2 C 3,2 km/h (1 Bft) 99,08 %
12.12.2015 20:25 6,1 C 84 % 1023,7 hPa 0,0 l/m 1,1 km/h (1 Bft) W-SW 254 0 min 0,000 mm 0,0 UV-I 0 W/m 3,6 C 6,1 C 3,2 km/h (1 Bft) 98,33 %
12.12.2015 20:30 6,4 C 83 % 1023,6 hPa 0,0 l/m 0,7 km/h (0 Bft) W-SW 254 0 min 0,000 mm 0,0 UV-I 0 W/m 3,7 C 6,4 C 1,6 km/h (1 Bft) 99,15 %
12.12.2015 20:35 6,4 C 82 % 1023,6 hPa 0,0 l/m 0,2 km/h (0 Bft) W-SW 254 0 min 0,000 mm 0,0 UV-I 0 W/m 3,6 C 6,4 C 1,6 km/h (1 Bft) 98,31 %
12.12.2015 20:40 6,4 C 82 % 1023,6 hPa 0,0 l/m 0,6 km/h (0 Bft) W-SW 254 0 min 0,000 mm 0,0 UV-I 0 W/m 3,6 C 6,4 C 1,6 km/h (1 Bft) 100,00 %
12.12.2015 20:45 6,3 C 83 % 1023,6 hPa 0,0 l/m 0,1 km/h (0 Bft) W-SW 254 0 min 0,000 mm 0,0 UV-I 0 W/m 3,6 C 6,3 C 1,6 km/h (1 Bft) 97,46 %
12.12.2015 20:50 6,2 C 85 % 1023,6 hPa 0,0 l/m 0,3 km/h (0 Bft) W-SW 254 0 min 0,000 mm 0,0 UV-I 0 W/m 3,9 C 6,2 C 1,6 km/h (1 Bft) 99,15 %
12.12.2015 20:55 6,1 C 85 % 1023,6 hPa 0,0 l/m 0,0 km/h (0 Bft) W-SW 254 0 min 0,000 mm 0,0 UV-I 0 W/m 3,8 C 6,1 C 0,0 km/h (0 Bft) 100,00 %
12.12.2015 21:00 5,8 C 86 % 1023,5 hPa 0,0 l/m 0,4 km/h (0 Bft) W-SW 254 0 min 0,000 mm 0,0 UV-I 0 W/m 3,6 C 5,8 C 1,6 km/h (1 Bft) 99,17 %
12.12.2015 21:05 6,0 C 85 % 1023,5 hPa 0,0 l/m 0,6 km/h (0 Bft) W-SW 246 0 min 0,000 mm 0,0 UV-I 0 W/m 3,7 C 6,0 C 1,6 km/h (1 Bft) 98,29 %
12.12.2015 21:10 6,1 C 84 % 1023,5 hPa 0,0 l/m 2,5 km/h (1 Bft) W-SW 246 0 min 0,000 mm 0,0 UV-I 0 W/m 3,6 C 6,1 C 3,2 km/h (1 Bft) 97,30 %
12.12.2015 21:15 6,0 C 85 % 1023,4 hPa 0,0 l/m 1,8 km/h (1 Bft) W-SW 246 0 min 0,000 mm 0,0 UV-I 0 W/m 3,7 C 6,0 C 3,2 km/h (1 Bft) 96,64 %
12.12.2015 21:20 5,9 C 85 % 1023,3 hPa 0,0 l/m 0,6 km/h (0 Bft) W-SW 245 0 min 0,000 mm 0,0 UV-I 0 W/m 3,6 C 5,9 C 1,6 km/h (1 Bft) 97,50 %
12.12.2015 21:25 5,8 C 85 % 1023,3 hPa 0,0 l/m 1,8 km/h (1 Bft) W-SW 242 0 min 0,000 mm 0,0 UV-I 0 W/m 3,5 C 5,8 C 3,2 km/h (1 Bft) 98,21 %
12.12.2015 21:30 5,8 C 84 % 1023,2 hPa 0,0 l/m 0,7 km/h (0 Bft) W-SW 242 0 min 0,000 mm 0,0 UV-I 0 W/m 3,3 C 5,8 C 3,2 km/h (1 Bft) 96,61 %
12.12.2015 21:35 5,5 C 86 % 1023,1 hPa 0,0 l/m 0,6 km/h (0 Bft) W-SW 242 0 min 0,000 mm 0,0 UV-I 0 W/m 3,3 C 5,5 C 1,6 km/h (1 Bft) 96,58 %
12.12.2015 21:40 5,0 C 88 % 1023,1 hPa 0,0 l/m 1,4 km/h (1 Bft) W-SW 242 0 min 0,000 mm 0,0 UV-I 0 W/m 3,2 C 5,0 C 1,6 km/h (1 Bft) 97,46 %
12.12.2015 21:45 4,7 C 89 % 1023,1 hPa 0,0 l/m 0,0 km/h (0 Bft) W-SW 242 0 min 0,000 mm 0,0 UV-I 0 W/m 3,0 C 4,7 C 1,6 km/h (1 Bft) 96,58 %
12.12.2015 21:50 4,3 C 90 % 1023,0 hPa 0,0 l/m 2,2 km/h (1 Bft) S-SO 167 0 min 0,000 mm 0,0 UV-I 0 W/m 2,8 C 4,3 C 4,8 km/h (1 Bft) 97,46 %
12.12.2015 21:55 4,4 C 89 % 1023,0 hPa 0,0 l/m 1,2 km/h (1 Bft) S-SO 167 0 min 0,000 mm 0,0 UV-I 0 W/m 2,7 C 4,4 C 6,4 km/h (2 Bft) 96,61 %
12.12.2015 22:00 4,2 C 89 % 1022,9 hPa 0,0 l/m 2,1 km/h (1 Bft) S-SO 167 0 min 0,000 mm 0,0 UV-I 0 W/m 2,6 C 4,2 C 4,8 km/h (1 Bft) 96,67 %
12.12.2015 22:05 4,0 C 90 % 1022,9 hPa 0,0 l/m 3,4 km/h (1 Bft) S-SO 167 0 min 0,000 mm 0,0 UV-I 0 W/m 2,5 C 4,0 C 4,8 km/h (1 Bft) 98,31 %
12.12.2015 22:10 3,8 C 91 % 1022,9 hPa 0,0 l/m 3,2 km/h (1 Bft) S-SO 167 0 min 0,000 mm 0,0 UV-I 0 W/m 2,5 C 3,8 C 4,8 km/h (1 Bft) 99,06 %
12.12.2015 22:15 3,4 C 92 % 1022,8 hPa 0,0 l/m 1,2 km/h (1 Bft) S-SO 167 0 min 0,000 mm 0,0 UV-I 0 W/m 2,2 C 3,4 C 4,8 km/h (1 Bft) 96,75 %
12.12.2015 22:20 3,3 C 92 % 1022,8 hPa 0,0 l/m 2,7 km/h (1 Bft) S-SO 167 0 min 0,000 mm 0,0 UV-I 0 W/m 2,1 C 3,3 C 4,8 km/h (1 Bft) 97,46 %
12.12.2015 22:25 3,2 C 93 % 1022,8 hPa 0,0 l/m 1,0 km/h (0 Bft) S-SO 167 0 min 0,000 mm 0,0 UV-I 0 W/m 2,2 C 3,2 C 1,6 km/h (1 Bft) 97,44 %
12.12.2015 22:30 3,3 C 93 % 1022,6 hPa 0,0 l/m 1,2 km/h (1 Bft) S-SO 167 0 min 0,000 mm 0,0 UV-I 0 W/m 2,3 C 3,3 C 4,8 km/h (1 Bft) 96,61 %
12.12.2015 22:35 3,3 C 93 % 1022,6 hPa 0,0 l/m 2,4 km/h (1 Bft) S-SO 167 0 min 0,000 mm 0,0 UV-I 0 W/m 2,3 C 3,3 C 6,4 km/h (2 Bft) 100,00 %
12.12.2015 22:40 3,2 C 93 % 1022,5 hPa 0,0 l/m 3,6 km/h (1 Bft) S-SO 161 0 min 0,000 mm 0,0 UV-I 0 W/m 2,2 C 3,2 C 6,4 km/h (2 Bft) 98,29 %
12.12.2015 22:45 3,2 C 93 % 1022,5 hPa 0,0 l/m 1,8 km/h (1 Bft) S-SO 161 0 min 0,000 mm 0,0 UV-I 0 W/m 2,2 C 3,2 C 6,4 km/h (2 Bft) 99,08 %
12.12.2015 22:50 3,2 C 92 % 1022,5 hPa 0,0 l/m 1,8 km/h (1 Bft) S-SO 161 0 min 0,000 mm 0,0 UV-I 0 W/m 2,0 C 3,2 C 3,2 km/h (1 Bft) 98,39 %
12.12.2015 22:55 2,8 C 92 % 1022,5 hPa 0,0 l/m 3,8 km/h (1 Bft) S 190 0 min 0,000 mm 0,0 UV-I 0 W/m 1,6 C 2,8 C 4,8 km/h (1 Bft) 100,00 %
12.12.2015 23:00 2,7 C 94 % 1022,4 hPa 0,0 l/m 4,2 km/h (1 Bft) S-SO 166 0 min 0,000 mm 0,0 UV-I 0 W/m 1,8 C 2,7 C 8,0 km/h (2 Bft) 99,15 %
12.12.2015 23:05 3,2 C 94 % 1022,4 hPa 0,0 l/m 2,3 km/h (1 Bft) S-SO 162 0 min 0,000 mm 0,0 UV-I 0 W/m 2,3 C 3,2 C 6,4 km/h (2 Bft) 98,33 %
12.12.2015 23:10 3,7 C 91 % 1022,4 hPa 0,0 l/m 1,6 km/h (1 Bft) S-SO 157 0 min 0,000 mm 0,0 UV-I 0 W/m 2,4 C 3,7 C 4,8 km/h (1 Bft) 98,11 %
12.12.2015 23:15 3,7 C 90 % 1022,2 hPa 0,0 l/m 4,4 km/h (1 Bft) S 180 0 min 0,000 mm 0,0 UV-I 0 W/m 2,2 C 3,7 C 8,0 km/h (2 Bft) 98,31 %
12.12.2015 23:20 3,6 C 91 % 1022,2 hPa 0,0 l/m 3,8 km/h (1 Bft) S 176 0 min 0,000 mm 0,0 UV-I 0 W/m 2,3 C 3,6 C 6,4 km/h (2 Bft) 99,15 %
12.12.2015 23:25 3,4 C 91 % 1022,2 hPa 0,0 l/m 2,8 km/h (1 Bft) S 177 0 min 0,000 mm 0,0 UV-I 0 W/m 2,1 C 3,4 C 3,2 km/h (1 Bft) 100,00 %
12.12.2015 23:30 3,2 C 91 % 1022,2 hPa 0,0 l/m 2,8 km/h (1 Bft) S 176 0 min 0,000 mm 0,0 UV-I 0 W/m 1,9 C 3,2 C 4,8 km/h (1 Bft) 96,61 %
12.12.2015 23:35 3,1 C 91 % 1022,2 hPa 0,0 l/m 3,8 km/h (1 Bft) S 175 0 min 0,000 mm 0,0 UV-I 0 W/m 1,8 C 3,1 C 8,0 km/h (2 Bft) 97,50 %
12.12.2015 23:40 3,0 C 92 % 1022,2 hPa 0,0 l/m 4,4 km/h (1 Bft) S 181 0 min 0,000 mm 0,0 UV-I 0 W/m 1,8 C 3,0 C 6,4 km/h (2 Bft) 97,46 %
12.12.2015 23:45 2,8 C 92 % 1022,1 hPa 0,0 l/m 3,9 km/h (1 Bft) S 184 0 min 0,000 mm 0,0 UV-I 0 W/m 1,6 C 2,8 C 4,8 km/h (1 Bft) 95,73 %
12.12.2015 23:50 2,8 C 92 % 1022,0 hPa 0,0 l/m 3,7 km/h (1 Bft) S 184 0 min 0,000 mm 0,0 UV-I 0 W/m 1,6 C 2,8 C 4,8 km/h (1 Bft) 96,69 %
12.12.2015 23:55 2,6 C 92 % 1022,0 hPa 0,0 l/m 3,6 km/h (1 Bft) S-SW 192 0 min 0,000 mm 0,0 UV-I 0 W/m 1,4 C 2,6 C 4,8 km/h (1 Bft) 96,61 %
_ Min-Zeit 23:00 09:30 23:50 - 20:55 - - - - - - 00:00 01:30 20:55 04:05
Minimum _ 2,6 C 65 % 1022,0 hPa - 0,0 km/h (0 Bft) - - - - - - 0,7 C -3,6 C 0,0 km/h (0 Bft) 92,11 %
_ Max-Zeit 14:30 23:00 00:00 11:20 01:30 - - 00:00 11:05 00:00 10:30 15:05 14:30 01:30 00:00
Maximum _ 8,8 C 94 % 1027,7 hPa 0,2 l/m 22,5 km/h
SW (4 Bft)
- - 0 min 0,101 mm 0,0 UV-I 130 W/m 5,4 C 8,8 C 37,0 km/h
SW (5 Bft)
100,00 %
Durchschnitt _ 6,8 C 77 % 1025,3 hPa #1,2 l/m 9,8 km/h (2 Bft) SW - #0 min. #0,813 mm 0,0 UV-I 51 W/m 3,0 C 3,9 C 16,1 km/h (3 Bft) 98,45 %